Skip Page Navigation
NASA JPL Caltech
NASA Logo - Jet Propulsion Laboratory + View the NASA Portal
+ Near-Earth Object (NEO) Program
Search JPL
JPL Home Earth Solar System Stars & Galaxies Technology
JPL Solar System Dynamics
BODIES ORBITS EPHEMERIDES TOOLS PHYSICAL DATA DISCOVERY FAQ SITE MAP
JPL Small-Body Database Browser
Search: [ help ]  
12317 Madicampbell (1992 HH1)
Classification: Main-belt Asteroid          SPK-ID: 2012317
Ephemeris | Orbit Diagram | Orbital Elements | Physical Parameters | Discovery Circumstances ]

[ hide orbit diagram ]
Orbit Diagram
Note: Make sure you have Java enabled on your browser to see the applet. This applet is provided as a 3D orbit visualization tool. The applet was implemented using 2-body methods, and hence should not be used for determining accurate long-term trajectories (over several years or decades) or planetary encounter circumstances. For accurate long-term ephemerides, please instead use our Horizons system.
Orbit Viewer

Additional Notes: the orbits shown in the applet are color coded. The planets are white lines, and the asteroid/comet is a blue line. The bright white line indicates the portion of the orbit that is above the ecliptic plane, and the darker portion is below the ecliptic plane. Likewise for the asteroid/comet orbit, the light blue indicates the portion above the ecliptic plane, and the dark blue the portion below the ecliptic plane.

Orbit Viewer applet originally written and kindly provided by Osamu Ajiki (AstroArts), and further modified by Ron Baalke (JPL).


Orbital Elements at Epoch 2456400.5 (2013-Apr-18.0) TDB
Reference: MPO247475 (heliocentric ecliptic J2000)
 Element Value Uncertainty (1-sigma)   Units 
e 0.0621121 n/a  
a 2.7897034 n/a AU
q 2.6164291 n/a AU
i 3.77906 n/a deg
node 214.05526 n/a deg
peri 203.80894 n/a deg
M 336.69114 n/a deg
tp 2456510.6930013
(2013-Aug-06.19300130)
n/a JED
period 1701.9056474
4.66
n/a
n/a
d
yr
n 0.21152759 n/a deg/d
Q 2.9629777 n/a AU
  Orbit Determination Parameters
   # obs. used (total)      779  
   first obs. used      1991-??-??  
   last obs. used      2012-12-13  
   # oppositions      15  
   planetary ephem.      DE403  
   condition code      0  
   fit RMS      0.56  
   data source      MPC:mpn  
   producer      MPCLINUX  

Additional Information
 T_jup = 3.324 

Ephemeris | Orbit Diagram | Orbital Elements | Physical Parameters | Discovery Circumstances ]

Physical Parameter Table
Parameter Symbol Value Units Sigma Reference Notes
absolute magnitude H 13.3 mag n/a PDS3 (MPC 36690)  
rotation period rot_per 7.264 h n/a Asteroid Lightcurve DataBase (Rev. 2013-May-01) Result based on less than full coverage, so that the period may be wrong by 30 percent or so.
Published Reference List:
[Higgins, D.; Pravec, P.; Kusnirak, P.; Galad, A.; et al. (2006) Minor Planet Bul. 33, 89-91.]

12317 Madicampbell           Discovered 1992 Apr. 24 by Spacewatch at Kitt Peak.
Margaret Diane Campbell (b. 1976), a Ph.D. student at the University of Western Ontario, became interested in astronomy as a young girl.
NOTE: some special characters may not display properly (any characters within {} are an attempt to place the proper accent above a character)
Reference: 20020526/MPCPages.arcLast Updated: 2003-10-02

Alternate Designations
 1992 HH1 = 1994 UT2 
Ephemeris | Orbit Diagram | Orbital Elements | Physical Parameters | Discovery Circumstances ]
ABOUT SSD CREDITS/AWARDS PRIVACY/COPYRIGHT GLOSSARY LINKS
FirstGov 2013-May-19 03:14 UT
(server date/time)  
NASA Home Page
Site Manager:   Donald K. Yeomans
Webmaster  Alan B. Chamberlin